KAITUO 1B
1 40912U 15049P   19193.54685293  .00001060  00000-0  52812-4 0  9999
2 40912  97.4498 200.5903 0016652  89.5032  29.5033 15.19629654210930
TIANWANG 1C (TW-1C)
1 40926U 15051B   19193.51971477  .00011641  00000-0  16808-3 0  9996
2 40926  97.1341 239.6661 0006055 283.8887 212.1669 15.56095048213861
TIANWANG 1B (TW-1B)
1 40927U 15051C   19193.49724545  .00010305  00000-0  15794-3 0  9995
2 40927  97.1369 238.9661 0006391 302.1954 165.3479 15.54490387213712
TIANWANG 1A (TW-1A)
1 40928U 15051D   19193.53467289  .00002958  00000-0  73933-4 0  9995
2 40928  97.1442 224.3109 0010782 356.8799 160.9594 15.40873965212847
LAPAN A2
1 40931U 15052B   19192.51636170  .00000816  00000-0  24654-4 0  9991
2 40931   6.0001 253.8111 0013228 118.1595 242.0346 14.76611049204649
LQSAT
1 40958U 15057A   19191.16430837 -.00000038  00000-0  18098-5 0  9990
2 40958  97.8977 259.7805 0018482 168.1734 191.9912 14.73083113201965
CHUBUSAT 2
1 41338U 16012B   19191.51604182  .00000245  00000-0  12311-4 0  9990
2 41338  31.0042   6.0737 0013944 318.7914  41.1669 15.00156921186190
CHUBUSAT 3
1 41339U 16012C   19193.47888550  .00000230  00000-0  11125-4 0  9997
2 41339  31.0119 351.6654 0013796 346.1216  13.9046 15.00332921186482
OUFTI-1
1 41458U 16025C   19190.78605394  .00001034  00000-0  57080-4 0  9990
2 41458  98.1024 278.7015 0165058 286.3041  72.0086 15.05835357175746
E-STAR-2
1 41459U 16025D   19193.46610702  .00000507  00000-0  30590-4 0  9999
2 41459  98.1010 281.1671 0166771 278.5521  79.6923 15.05473458176123
AAUSAT 4
1 41460U 16025E   19193.21305878  .00000447  00000-0  27049-4 0  9997
2 41460  98.0940 282.1984 0156176 271.8445  86.4994 15.07362734176213
NUSAT 1
1 41557U 16033B   19191.79696144  .00001020  00000-0  40931-4 0  9996
2 41557  97.4182 279.1686 0012853 213.9168 146.1250 15.27239762173467
BEESAT 4
1 41619U 16040W   19191.12904862  .00000957  00000-0  43432-4 0  9996
2 41619  97.3662 252.9526 0009986 314.5615  45.4805 15.23156174157121
PRATHAM
1 41783U 16059A   19191.41693376  .00000031  00000-0  15363-4 0  9990
2 41783  98.0660 250.5179 0032537 317.4685  42.3997 14.62998605148723
ALSAT 1N
1 41789U 16059G   19193.43713513  .00000035  00000-0  15825-4 0  9993
2 41789  98.0683 254.5377 0027171 300.3853  59.4664 14.64248761149122
NAYIF 1
1 42017U 17008BX  19191.14635814  .00001075  00000-0  45181-4 0  9999
2 42017  97.4021 258.0190 0007982  93.6885 266.5266 15.25560313133190
MAX VALIER SAT
1 42778U 17036P   19190.76406294  .00000674  00000-0  32463-4 0  9992
2 42778  97.3530 247.9656 0013464 144.1497 216.0646 15.22034630113448
